Miscellaneous Local Product
Issued by NWS North Platte, NE

Home | Current Version | Previous Version | Graphics & Text | Print | Product List | Glossary On
Versions: 1 2 3 4 5 6 7 8 9 10 11 12 13 14 15 16 17 18 19 20 21 22 23 24 25 26 27 28 29 30 31 32 33 34 35 36 37 38 39 40 41 42 43 44 45 46 47 48 49 50
000
AXUS43 KLBF 171310
MISLBF


WESTERN AND NORTH CENTRAL NEBRASKA HOURLY WEATHER ROUNDUP
NATIONAL WEATHER SERVICE NORTH PLATTE NE
800 AM CDT TUE OCT 17 2017

NOTE: "FAIR" INDICATES FEW OR NO CLOUDS BELOW 12,000 FEET WITH NO
SIGNIFICANT WEATHER AND/OR OBSTRUCTIONS TO VISIBILITY.

NOTE: STATIONS NOT REPORTING VARIABLES SUCH AS SKY/WEATHER OR
PRESSURE ARE PROVIDED BY RAWS AND APRS NETWORKS AND ARE NOT UNDER
NATIONAL WEATHER SERVICE QUALITY CONTROL.

...OBSERVATIONS IN AND NEAR THE EASTERN PANHANDLE OF NEBRASKA...

CITY           SKY/WX    TMP DP  RH WIND       PRES   REMARKS
PINE RIDGE     CLOUDY    28  26  92 NW3       30.11S
GORDON         FAIR      30  26  84 CALM      30.12S
CHADRON        CLOUDY    33  23  66 W3        30.12S
ALLIANCE       CLOUDY    27  21  78 W9        30.14F WCI  18
SIDNEY         CLOUDY    35  21  56 W8        30.19S WCI  29
CRESCENT LAKE    N/A     40  27  59 SW3         N/A
$$

...OBSERVATIONS IN NORTHERN NEBRASKA AND FAR SOUTHERN SOUTH DAKOTA...

CITY           SKY/WX    TMP DP  RH WIND       PRES   REMARKS
WINNER         FAIR      48  34  58 SW12      30.05F
VALENTINE      CLEAR     37  30  75 SW5       30.09F WCI  33
THEDFORD       CLEAR     35  31  85 CALM      30.14S
AINSWORTH      CLEAR     42  33  72 W6        30.10S
O`NEILL        CLEAR     45  38  78 CALM      30.08S
ORD            CLEAR     35  32  88 NW6       30.09S WCI  30
BROKEN BOW     CLEAR     37  33  85 NE5       30.11S WCI  33
VALENTINE NWR    N/A     42  32  68 CALM        N/A
HALSEY           N/A     41  29  63 SW3         N/A
BUTTE            N/A     43  36  75 SW3         N/A
CHAMBERS         N/A     42  37  81 CALM        N/A
EWING            N/A     41  38  89 CALM        N/A
$$

...OBSERVATIONS IN SOUTHWEST NEBRASKA AND FAR NORTHEAST COLORADO...

CITY           SKY/WX    TMP DP  RH WIND       PRES   REMARKS
WRAY           FAIR      32  28  86 W7        30.19F WCI  26
HOLYOKE        FAIR      41  28  60 W9        30.19S
IMPERIAL       CLOUDY    36  28  73 W6        30.18S WCI  31
OGALLALA       CLOUDY    32  30  91 CALM      30.18S
NORTH PLATTE   CLEAR     33  31  92 NW5       30.15S WCI  29
MCCOOK         CLEAR     35  32  88 SW8       30.15S WCI  29
LEXINGTON      CLEAR     39  34  82 NW8       30.13S WCI  34
STAPLETON        N/A     40  31  71 CALM        N/A
GOTHENBURG       N/A     40  31  70 W6          N/A
CALLAWAY         N/A     34  31  90 NW5         N/A  WCI  30
$$

...OBSERVATIONS IN CENTRAL LINCOLN COUNTY AREA...

CITY           SKY/WX    TMP DP  RH WIND       PRES   REMARKS
N.P. AIRPORT   CLEAR     33  31  92 NW5       30.15S WCI  29
N.P. DOWNTOWN    N/A     38  34  85 CALM        N/A
N.P. SOUTHEAST   N/A     38  33  84 CALM        N/A
N.P. HILLCREST   N/A     37  30  77 NW3         N/A
$$

...SOME OBSERVATIONS FROM AROUND THE REGION...

CITY           SKY/WX    TMP DP  RH WIND       PRES   REMARKS
DENVER         CLOUDY    45  11  25 SW12      30.25S
LIMON          CLOUDY    25  21  85 NW3       30.26S
ASPEN          CLOUDY    25  10  53 SW6       30.45S WCI  18
LARAMIE        CLOUDY    36   8  31 S9        30.31F WCI  29
CASPER         CLOUDY    41  16  36 SW16      30.19S
CHEYENNE       CLOUDY    45  12  26 SW13      30.26S
SCOTTSBLUFF    CLEAR     29  23  78 NW3       30.17S
GRAND ISLAND   CLEAR     39  37  92 W5        30.09S
OMAHA          PTCLDY    47  40  76 S9        30.11S
SIOUX FALLS    PTCLDY    38  37  97 CALM      30.04S
PIERRE         CLEAR     40  33  76 SW3       30.01F
RAPID CITY     CLEAR     46  23  40 W8        30.06S
BISMARCK       CLOUDY    33  29  85 E5        29.92F WCI  29
KANSAS CITY    PTCLDY    48  41  76 S12       30.20F
HILL CITY      CLEAR     42  35  76 W6        30.12S
WICHITA        PTCLDY    48  42  80 S13       30.18S
DODGE CITY     CLEAR     44  34  67 SW13      30.15R
OKLAHOMA CITY  CLEAR     42  39  89 S7        30.25S
DALLAS         CLEAR     51  43  74 SE3       30.28S
AMARILLO       CLEAR     44  36  73 SW10      30.20F
$$




USA.gov is the U.S. government's official web portal to all federal, state and local government web resources and services.